TimeEST,TemperatureF,Dew PointF,Humidity,Sea Level PressureIn,VisibilityMPH,Wind Direction,Wind SpeedMPH,Gust SpeedMPH,PrecipitationIn,Events,Conditions,WindDirDegrees,DateUTC
12:52 AM,32.0,26.6,80,30.20,9.0,West,5.8,-,N/A,,Overcast,280,2013-03-07 05:52:00
1:52 AM,32.0,26.1,79,30.23,9.0,West,3.5,-,N/A,,Overcast,280,2013-03-07 06:52:00
2:52 AM,32.0,26.1,79,30.23,9.0,Calm,Calm,-,N/A,,Overcast,0,2013-03-07 07:52:00
3:52 AM,32.0,26.1,79,30.23,8.0,WSW,4.6,-,N/A,,Overcast,250,2013-03-07 08:52:00
4:52 AM,30.9,26.1,82,30.25,7.0,WSW,4.6,-,N/A,,Overcast,250,2013-03-07 09:52:00
5:52 AM,32.0,26.1,79,30.26,7.0,West,5.8,-,N/A,,Overcast,270,2013-03-07 10:52:00
6:52 AM,32.0,26.1,79,30.27,8.0,WNW,6.9,-,N/A,,Overcast,290,2013-03-07 11:52:00
7:52 AM,32.0,26.6,80,30.27,8.0,West,5.8,-,N/A,,Mostly Cloudy,270,2013-03-07 12:52:00
8:52 AM,33.1,27.0,78,30.32,10.0,WNW,10.4,-,N/A,,Overcast,300,2013-03-07 13:52:00
9:52 AM,35.6,28.4,75,30.31,10.0,NW,12.7,-,N/A,,Overcast,310,2013-03-07 14:52:00
10:06 AM,33.8,28.4,81,30.31,10.0,NW,9.2,-,N/A,,Overcast,320,2013-03-07 15:06:00
10:52 AM,36.0,28.0,73,30.33,10.0,NNW,10.4,-,N/A,,Overcast,330,2013-03-07 15:52:00
11:52 AM,36.0,28.0,73,30.34,10.0,NNW,10.4,-,N/A,,Overcast,340,2013-03-07 16:52:00
12:52 PM,36.0,26.1,67,30.34,10.0,NNW,9.2,-,N/A,,Overcast,330,2013-03-07 17:52:00
1:52 PM,37.0,26.1,65,30.33,10.0,North,11.5,-,N/A,,Overcast,350,2013-03-07 18:52:00
2:52 PM,37.9,24.1,57,30.33,10.0,NNW,11.5,-,N/A,,Overcast,330,2013-03-07 19:52:00
3:52 PM,37.0,23.0,57,30.34,10.0,North,8.1,-,N/A,,Overcast,360,2013-03-07 20:52:00
4:52 PM,36.0,23.0,59,30.35,10.0,North,9.2,-,N/A,,Overcast,360,2013-03-07 21:52:00
5:52 PM,36.0,23.0,59,30.35,10.0,North,3.5,-,N/A,,Overcast,360,2013-03-07 22:52:00
6:52 PM,35.1,23.0,61,30.38,10.0,North,4.6,-,N/A,,Overcast,10,2013-03-07 23:52:00
7:52 PM,34.0,23.0,64,30.40,10.0,North,5.8,-,N/A,,Overcast,360,2013-03-08 00:52:00
8:52 PM,33.1,21.0,61,30.40,10.0,North,5.8,-,N/A,,Overcast,10,2013-03-08 01:52:00
9:52 PM,32.0,21.9,66,30.40,10.0,NNE,4.6,-,N/A,,Overcast,20,2013-03-08 02:52:00
10:52 PM,32.0,19.9,61,30.40,10.0,NNE,4.6,-,N/A,,Overcast,30,2013-03-08 03:52:00
11:52 PM,30.9,18.0,59,30.40,10.0,Calm,Calm,-,N/A,,Overcast,0,2013-03-08 04:52:00